Effective Sunday, March 17, 2024, the National Weather Service National Data Buoy Center will discontinue its Dial-A-Buoy Interactive Voice Response system. For more information, see Service Change Notice 24-06 (PDF).

Station 41008 (LLNR 833) - GRAYS REEF - 40 NM Southeast of Savannah, GA Image indicating link to RSS feed of recent meteorological observations for station 41008


Conditions at 41008 as of
(9:20 pm EST on 02/23/2024)
0220 GMT on 02/24/2024:
     

Click on the graph icon in the table below to see a time series plot of the last five days of that observation.

5-day plot - Wind Direction Wind Direction (WDIR):WSW ( 250 deg true )
5-day plot - Wind Speed Wind Speed (WSPD): 11.7 kts
5-day plot - Wind Gust Wind Gust (GST): 13.6 kts
5-day plot - Wave Height Wave Height (WVHT): 3.9 ft
5-day plot - Dominant Wave Period Dominant Wave Period (DPD): 7 sec
5-day plot - Average Wave Period Average Period (APD): 5.0 sec
5-day plot - Mean Wave Direction Mean Wave Direction (MWD):SSE ( 150 deg true )
5-day plot - Atmospheric Pressure Atmospheric Pressure (PRES):29.72 in
5-day plot - Air Temperature Air Temperature (ATMP): 60.1 °F
5-day plot - Water Temperature Water Temperature (WTMP): 56.5 °F
5-day plot - Dew Point Dew Point (DEWP): 58.3 °F
5-day plot - Wind Speed at 10 Meters Wind Speed at 10 meters (WSPD10M): 11.7 kts
5-day plot - Wind Speed at 20 Meters Wind Speed at 20 meters (WSPD20M): 13.6 kts
5-day plot -  Wind Speed, Wind Gust and Atmospheric Pressure Combined plot of Wind Speed, Gust, and Air Pressure
Supplemental Measurements
Highest 1-minute Wind Speed
Time (EST)5-day plot - 1-Minute Wind Speed WSPD 5-day plot - 1-Minute Wind Direction WDIR
9:19 pm 11.7 kts-
Previous observations
TIME
(EST)
5-day plot - Wind Direction
WDIR
 
5-day plot - Wind Speed
WSPD
kts
5-day plot - Wind Gust
GST
kts
5-day plot - Wave Height
WVHT
ft
5-day plot - Dominant Wave Period
DPD
sec
5-day plot - Average Wave Period
APD
sec
5-day plot - Mean Wave Direction
MWD
 
5-day plot - Atmospheric Pressure
PRES
in
5-day plot - Pressure Tendency
PTDY
in
5-day plot - Air Temperature
ATMP
°F
5-day plot - Water Temperature
WTMP
°F
5-day plot - Dew Point
DEWP
°F
5-day plot - Salinity
SAL
psu
5-day plot - Visibility
VIS
nmi
5-day plot - Tide (above MLLW)
TIDE
ft
2024-02-23 09:10 pmWSW 11.7 13.6 3.9-5.0SSE29.72- 59.9 56.5 58.5---
2024-02-23 09:00 pmWSW 11.7 15.5----29.72+0.09 59.5 56.5 58.3---
2024-02-23 08:50 pm SW 11.7 13.6 4.3 65.0SSE29.71- 59.4 56.5 58.1---
2024-02-23 08:40 pm SW 13.6 15.5----29.71- 59.4 56.5 58.1---
2024-02-23 08:30 pm SW 13.6 15.5----29.70- 59.4 56.5 58.1---
2024-02-23 08:20 pm SW 13.6 15.5 4.3 74.9 SE29.70- 59.2 56.7 57.9---
2024-02-23 08:10 pm SW 13.6 15.5 4.3-4.9 SE29.69- 59.0 56.7 57.9---
2024-02-23 08:00 pm SW 11.7 13.6----29.68+0.05 59.0 56.7 58.3---
2024-02-23 07:50 pm SW 11.7 15.5 4.3 64.9SSE29.68- 59.0 56.7 58.5---
2024-02-23 07:40 pm SW 11.7 13.6 4.3-4.9SSE29.68- 59.0 56.7 58.6---
2024-02-23 07:30 pm SW 11.7 13.6----29.67- 59.2 56.7 58.6---
2024-02-23 07:20 pmSSW 11.7 13.6 4.6 65.0SSE29.67- 59.5 56.7 58.8---
2024-02-23 07:10 pmSSW 11.7 15.5----29.66- 59.7 56.7 59.0---
2024-02-23 07:00 pmSSW 11.7 13.6----29.66+0.00 59.5 56.7 58.8---
2024-02-23 06:50 pmSSW 11.7 13.6 4.6 64.8SSE29.66- 60.1 56.7 59.0---
2024-02-23 06:40 pmSSW 11.7 17.5----29.65- 60.4 56.7 59.2---
2024-02-23 06:20 pm S 11.7 19.4 4.3 54.9SSE29.64- 61.0 56.7 58.5---
2024-02-23 06:10 pm S 11.7 13.6 4.3-4.9SSE29.63- 60.4 56.7 57.6---
2024-02-23 06:00 pm S 9.7 11.7----29.62+0.00 60.8 56.7 57.0---
2024-02-23 05:50 pmSSW 7.8 9.7 4.6 65.0SSE29.63- 60.6 56.7 56.8---
2024-02-23 05:40 pmSSW 5.8 7.8----29.63- 59.9 56.7 56.7---
2024-02-23 05:30 pmSSW 7.8 11.7----29.62- 59.2 56.8 56.8---
2024-02-23 05:20 pmSSW 7.8 11.7 4.3 64.9SSE29.64- 59.5 56.7 56.7---
2024-02-23 05:10 pm SW 7.8 11.7 4.3-4.9SSE29.64- 60.1 56.7 56.1---
2024-02-23 05:00 pmWSW 7.8 9.7----29.63-0.03 60.4 56.7 56.1---
2024-02-23 04:50 pm SW 5.8 7.8 4.9 65.2SSE29.63- 60.6 56.7 56.3---
2024-02-23 04:40 pm W 5.8 9.7----29.63- 60.3 56.7 55.9---
2024-02-23 04:30 pm W 7.8 11.7----29.62- 59.4 56.7 56.1---
2024-02-23 04:20 pm W 11.7 15.5 4.6 65.1SSE29.63- 59.4 56.7 56.5---
2024-02-23 04:10 pm W 19.4 29.1 4.6-5.1SSE29.64- 59.2 56.7 57.6---
2024-02-23 04:00 pm W 7.8 17.5----29.66-0.01 60.3 56.7 59.4---
2024-02-23 03:50 pmSSW 11.7 13.6 4.6 64.8SSE29.62- 60.1 56.7 59.2---
2024-02-23 03:40 pm S 13.6 15.5 4.6-4.8SSE29.61- 60.1 56.7 59.2---
2024-02-23 03:30 pm S 13.6 15.5----29.60- 60.1- 59.2---
2024-02-23 03:20 pm S 13.6 15.5 4.3 64.8SSE29.62- 59.9 56.5 59.0---
2024-02-23 03:10 pm S 11.7 15.5 4.3-4.8SSE29.62- 59.7 56.5 58.8---
2024-02-23 03:00 pm S 13.6 17.5----29.62-0.09 59.9 56.5 59.0---
2024-02-23 02:50 pmSSW 13.6 17.5 4.6 64.9SSE29.63- 59.9 56.5 59.0---
2024-02-23 02:40 pmSSW 13.6 17.5----29.63- 60.1 56.5 59.2---
2024-02-23 02:30 pmSSW 15.5 19.4----29.64- 59.9 56.5 59.0---
2024-02-23 02:20 pmSSW 13.6 17.5 4.9 64.8SSE29.64- 59.2 56.3 58.3---
2024-02-23 02:10 pmSSW 11.7 15.5 4.9-4.8SSE29.65- 59.2 56.3 58.3---
2024-02-23 02:00 pmSSW 13.6 17.5----29.66-0.07 59.4 56.5 58.1---
2024-02-23 01:50 pmSSW 15.5 19.4----29.66- 59.2 56.1 57.9---
2024-02-23 01:40 pmSSW 15.5 21.4----29.66- 59.2 56.1 58.3---
2024-02-23 01:30 pmSSW 17.5 21.4----29.67- 59.0 56.1 58.1---
2024-02-23 01:20 pm-------29.67-- 55.9----
2024-02-23 01:10 pmSSW 17.5 21.4----29.67- 58.8 55.9 57.9---
2024-02-23 01:00 pmSSW 17.5 21.4----29.68-0.07 58.6 55.9 57.7---
2024-02-23 12:40 pm--- 4.9 64.9SSE--------
2024-02-23 12:30 pmSSW 15.5 19.4----29.70- 57.9 55.9 57.2---
2024-02-23 12:20 pmSSW 17.5 21.4 4.9 64.8SSE29.71- 57.7 55.9 57.0---
2024-02-23 12:10 pm S 15.5 21.4 4.9-4.8SSE29.71- 57.7 55.9 57.0---
2024-02-23 12:00 pmSSW 17.5 21.4----29.72-0.03 57.9 55.9 57.0---
2024-02-23 11:50 amSSW 17.5 21.4 5.2 64.9 S29.72- 58.3 55.9 56.8---
2024-02-23 11:40 amSSW 19.4 23.3----29.72- 58.5 55.9 56.7---
2024-02-23 11:30 amSSW 19.4 23.3----29.72- 58.6 55.9 56.7---
2024-02-23 11:20 amSSW 19.4 27.2 4.9 64.6SSE29.73- 58.6 56.1 56.5---
2024-02-23 11:10 amSSW 19.4 23.3 4.9-4.6SSE29.73- 58.6 56.1 56.5---
2024-02-23 11:00 amSSW 19.4 25.3----29.74-0.02 58.5 56.1 56.5---
2024-02-23 10:50 amSSW 19.4 25.3 5.2-4.8SSE29.74- 58.6- 56.3---
2024-02-23 10:40 amSSW 19.4 25.3 5.2-4.8SSE29.74- 58.6 56.1 56.3---
2024-02-23 10:30 amSSW 21.4 25.3----29.74- 58.6 56.3 56.3---
2024-02-23 10:20 amSSW 19.4 25.3 5.6 64.7SSE29.74- 58.6 56.3 56.3---
2024-02-23 10:10 amSSW 21.4 25.3 5.6-4.7SSE29.75- 58.6 56.1 56.3---
2024-02-23 10:00 amSSW 21.4 27.2----29.75-0.03 58.6 56.3 56.3---
2024-02-23 09:50 amSSW 21.4 25.3 5.2 54.6 S29.75- 58.6 56.3 56.3---
2024-02-23 09:40 amSSW 21.4 25.3----29.75- 58.6 56.1 56.3---
2024-02-23 09:30 amSSW 21.4 27.2----29.75- 58.6 56.1 55.9---
2024-02-23 09:20 amSSW 23.3 29.1 4.9 54.4 S29.75- 58.6 56.1 55.9---
2024-02-23 09:10 amSSW 23.3 29.1 4.9-4.4 S29.74- 58.5 56.1 55.8---
2024-02-23 09:00 amSSW 23.3 29.1----29.75-0.03 58.5 56.1 55.9---
2024-02-23 08:50 amSSW 23.3 27.2 4.9 54.3 S29.75- 58.3 56.1 55.8---
2024-02-23 08:40 amSSW 21.4 27.2 4.9-4.3 S29.75- 58.1 56.5 55.8---
2024-02-23 08:30 amSSW 21.4 27.2----29.75- 58.1 56.5 55.8---
2024-02-23 08:20 amSSW 21.4 27.2 4.6 54.4SSW29.76- 57.9 56.5 55.6---
2024-02-23 08:10 amSSW 21.4 27.2 4.6-4.4SSW29.75- 57.7 56.3 55.4---
2024-02-23 08:00 amSSW 21.4 27.2----29.75-0.04 57.7 56.3 55.4---
2024-02-23 07:50 amSSW 21.4 25.3 4.3 54.4 S29.75- 57.7 56.3 55.4---
2024-02-23 07:40 amSSW 21.4 25.3----29.76- 57.6 56.3 55.2---
2024-02-23 07:30 amSSW 21.4 25.3----29.76- 57.6 56.3 55.2---
2024-02-23 07:20 amSSW 19.4 25.3 4.3 54.4 S29.76- 57.4 56.3 55.0---
2024-02-23 07:10 amSSW 21.4 27.2 4.3-4.4 S29.77- 57.4 56.5 55.0---
2024-02-23 07:00 amSSW 19.4 23.3----29.77-0.03 57.4 56.5 55.0---
2024-02-23 06:50 amSSW 19.4 25.3 3.9 124.4SSE29.78- 57.6 56.5 55.0---
2024-02-23 06:40 amSSW 19.4 25.3----29.77- 57.4 56.7 54.7---
2024-02-23 06:30 amSSW 19.4 23.3----29.78- 57.4 56.7 54.7---
2024-02-23 06:20 amSSW 19.4 23.3 3.9 44.5SSW29.78- 57.4 56.5 54.7---
2024-02-23 06:10 amSSW 19.4 25.3 3.9-4.5SSW29.78- 57.6 56.7 54.7---
2024-02-23 06:00 amSSW 19.4 25.3----29.78-0.06 57.6 56.7 54.5---
2024-02-23 05:50 amSSW 19.4 25.3 3.9 124.3ESE29.78- 57.4 56.7 54.5---
2024-02-23 05:40 amSSW 19.4 25.3 3.9-4.3ESE29.78- 57.4 56.7 54.3---
2024-02-23 05:30 amSSW 19.4 23.3----29.78- 57.4 56.8 54.3---
2024-02-23 05:20 am SW 17.5 23.3 3.9 44.3 S29.79- 57.2 56.8 54.3---
2024-02-23 05:10 amSSW 17.5 21.4 3.9-4.3 S29.79- 57.4 56.7 54.5---
2024-02-23 05:00 amSSW 17.5 23.3----29.79-0.06 57.6 56.7 54.3---
2024-02-23 04:50 am SW 17.5 23.3 3.9 44.3 S29.79- 57.6 56.7 54.1---
2024-02-23 04:40 am SW 17.5 21.4----29.79- 57.4 56.8 54.0---
2024-02-23 04:30 am SW 17.5 21.4----29.80- 57.4 56.7 54.0---
2024-02-23 04:20 am SW 15.5 19.4 3.6 124.4ENE29.80- 57.4 56.7 54.0---
2024-02-23 04:10 amSSW 15.5 21.4 3.6-4.4ENE29.80- 57.6 56.7 53.6---
2024-02-23 04:00 amSSW 15.5 19.4----29.80-0.06 57.6 56.5 53.4---
2024-02-23 03:50 am SW 15.5 17.5 3.6 114.4ENE29.81- 57.6 56.5 53.6---
2024-02-23 03:40 am SW 15.5 19.4----29.81- 57.7 56.5 53.1---
2024-02-23 03:30 amSSW 15.5 19.4----29.82- 57.6 56.5 52.9---
2024-02-23 03:20 am SW 13.6 17.5 3.9 114.6 E29.82- 57.6 56.5 52.9---
2024-02-23 03:10 am SW 13.6 17.5 3.9-4.6 E29.83- 57.7 56.5 52.9---
2024-02-23 03:00 am SW 15.5 17.5----29.84-0.04 57.7 56.5 52.2---
2024-02-23 02:50 am SW 15.5 17.5 4.3 134.7 E29.84- 57.7 56.5 52.7---
2024-02-23 02:40 am SW 13.6 17.5----29.84- 57.7 56.5 52.9---
2024-02-23 02:30 am SW 13.6 17.5----29.85- 57.7 56.5 53.1---
2024-02-23 02:20 am SW 13.6 17.5 3.9-4.7 E29.85- 57.7 56.5 52.9---
2024-02-23 02:10 am SW 13.6 17.5 3.9-4.7 E29.85- 57.7 56.5 52.9---
2024-02-23 02:00 am SW 11.7 15.5----29.85-0.05 57.6 56.5 52.5---
2024-02-23 01:50 am SW 13.6 17.5 3.9-4.6 E29.87- 57.7 56.5 52.0---
2024-02-23 01:40 am SW 13.6 17.5 3.9-4.6 E29.87- 57.9 56.5 51.4---
2024-02-23 01:30 am SW 13.6 17.5----29.85- 57.9- 51.4---
2024-02-23 01:20 am SW 13.6 17.5 3.9 134.7 E29.87- 57.9 56.5 51.3---
2024-02-23 01:10 am SW 15.5 19.4----29.87- 58.1 56.5 51.1---
2024-02-23 01:00 am SW 13.6 17.5----29.87-0.04 58.1 56.5 51.3---
2024-02-23 12:50 am SW 13.6 17.5 3.6 124.6 E29.87- 58.5 56.7 50.7---
2024-02-23 12:40 am SW 15.5 19.4----29.88- 58.5 56.7 50.5---
2024-02-23 12:30 am SW 15.5 17.5----29.88- 58.5 56.8 51.3---
2024-02-23 12:20 am SW 15.5 19.4 3.6-4.6ENE29.87- 58.5 56.8 51.8---
2024-02-23 12:10 am SW 15.5 19.4----29.88- 58.8 57.0 52.2---
2024-02-23 12:00 amSSW 15.5 19.4----29.88-0.05 59.0 57.2 52.2---
2024-02-22 11:50 pmSSW 15.5 19.4 3.6 135.0 E29.88- 59.4 57.4 52.7---
2024-02-22 11:40 pmSSW 15.5 19.4 3.6-5.0 E29.88- 59.4 57.2 53.6---
2024-02-22 11:30 pmSSW 15.5 19.4----29.89- 59.2 56.8 55.0---
2024-02-22 11:20 pmSSW 15.5 19.4 3.3 125.4ENE29.90- 59.2 56.7 55.9---
2024-02-22 11:10 pmSSW 15.5 21.4 3.3-5.4ENE29.90- 59.2 56.7 56.8---
2024-02-22 11:00 pmSSW 15.5 19.4----29.90-0.04 59.4 56.7 57.2---
2024-02-22 10:50 pmSSW 17.5 21.4 3.0 145.8 E29.90- 59.7 56.7 57.7---
2024-02-22 10:40 pmSSW 15.5 19.4 3.0-5.8 E29.91- 59.9 56.8 57.9---
2024-02-22 10:30 pmSSW 15.5 19.4----29.91- 60.1 56.8 58.1---
2024-02-22 10:20 pm S 15.5 17.5 3.3 136.1ESE29.90- 60.1 56.8 58.1---
2024-02-22 10:10 pm S 15.5 17.5 3.3-6.1ESE29.91- 60.1 56.8 57.7---
2024-02-22 10:00 pm S 15.5 17.5----29.91-0.04 60.1 56.8 57.7---
2024-02-22 09:50 pm S 13.6 17.5 3.0 146.8 SE29.91- 60.1 56.8 57.7---
2024-02-22 09:40 pm S 13.6 15.5----29.92- 59.7 56.8 57.7---
2024-02-22 09:30 pm S 11.7 15.5----29.92- 59.7 56.8 57.7---
2024-02-22 09:20 pm S 11.7 13.6 3.6 147.5ESE29.93- 59.5 56.8 57.2---
2024-02-22 09:10 pm S 9.7 11.7 3.6-7.5ESE29.93- 59.5 57.0 56.8---
2024-02-22 09:00 pm S 9.7 11.7----29.93-0.03 59.4 57.0 56.5---
2024-02-22 08:50 pm S 9.7 11.7 3.3 127.3 E29.93- 59.4 57.0 56.1---

Detailed Wave Summary
for 41008 as of
(9:10 pm EST on 02/23/2024)
0210 GMT on 02/24/2024:

These wave data are displayed in rounded times.

     

Click on the graph icon in the table below to see a time series plot of the last five days of that observation.

5-day plot - Significant Wave Height Significant Wave Height (WVHT): 3.9 ft
5-day plot - Swell Height Swell Height (SwH): 3.0 ft
5-day plot - Swell Period Swell Period (SwP): 6.7 sec
5-day plot - Swell Direction Swell Direction (SwD):SSE
5-day plot - Wind Wave Height Wind Wave Height (WWH): 2.6 ft
5-day plot - Wind Wave Period Wind Wave Period (WWP): 5.6 sec
5-day plot - Wind Wave Direction Wind Wave Direction (WWD):SSE
5-day plot - Wave Steepness Wave Steepness (STEEPNESS): STEEP
5-day plot - Average Wave Period Average Wave Period (APD): 5.0 sec
Previous observations
TIME
(EST)
5-day plot - Wave Height
WVHT
ft
5-day plot - Swell Height
SwH
ft
5-day plot - Swell Period
SwP
sec
5-day plot - Swell Direction
SwD
 
5-day plot - Wind Wave Height
WWH
ft
5-day plot - Wind Wave Period
WWP
sec
5-day plot - Wind Wave Direction
WWD
 
5-day plot - Wave Steepness
STEEPNESS
 
5-day plot - Average Wave Period
APD
sec
2024-02-23 08:40 pm 4.3 3.0 6.2SSE 3.0 5.3 SSE STEEP 5.0
2024-02-23 08:10 pm 4.3 2.3 7.1 SE 3.6 6.2 SSE STEEP 4.9
2024-02-23 07:40 pm 4.3 3.0 6.2SSE 3.0 5.0 SSE STEEP 4.9
2024-02-23 07:10 pm 4.6 3.0 7.1 SE 3.3 5.9 SSE STEEP 5.0
2024-02-23 06:40 pm 4.6 3.0 6.2SSE 3.3 5.3 SSE STEEP 4.8
2024-02-23 06:10 pm 4.3 2.6 6.7SSE 3.3 5.3 SSEVERY_STEEP 4.9
2024-02-23 05:40 pm 4.6 4.3 5.9SSE 1.6 3.7 S STEEP 5.0
2024-02-23 05:10 pm 4.3 3.9 5.9SSE 2.0 3.8 S STEEP 4.9
2024-02-23 04:40 pm 4.9 4.6 6.2SSE 1.6 3.7 S STEEP 5.2
2024-02-23 04:10 pm 4.6 3.3 5.9SSE 3.3 4.3 SVERY_STEEP 5.1
2024-02-23 03:40 pm 4.6 3.3 5.9SSE 3.3 4.2 SVERY_STEEP 4.8
2024-02-23 03:10 pm 4.3 2.3 12.1 E 3.9 5.9 SSE STEEP 4.8
2024-02-23 02:40 pm 4.6 2.3 12.1 E 3.9 5.9 SSE STEEP 4.9
2024-02-23 02:10 pm 4.9 2.0 12.9ESE 4.6 5.9 SSEVERY_STEEP 4.8
2024-02-23 12:40 pm 4.9 1.6 12.9 SE 4.6 5.9 SSEVERY_STEEP 4.9
2024-02-23 12:10 pm 4.9 1.6 11.4 SE 4.6 6.2 SSE STEEP 4.8
2024-02-23 11:40 am 5.2 1.6 12.9SSE 4.9 5.9 SVERY_STEEP 4.9
2024-02-23 11:10 am 4.9 1.3 12.9 SW 4.9 5.9 SSEVERY_STEEP 4.6
2024-02-23 10:40 am 5.2 1.6 12.9SSW 5.2 6.2 SSEVERY_STEEP 4.8
2024-02-23 10:10 am 5.6 1.6 12.9 E 5.2 5.9 SSEVERY_STEEP 4.7
2024-02-23 09:40 am 5.2 1.6 13.8 S 5.2 5.3 SVERY_STEEP 4.6
2024-02-23 09:10 am 4.9 1.3 12.9SSE 4.9 5.3 SVERY_STEEP 4.4
2024-02-23 08:40 am 4.9 2.0 12.9 SE 4.3 5.0 SVERY_STEEP 4.3
2024-02-23 08:10 am 4.6 2.0 12.9SSE 3.9 4.8 SSWVERY_STEEP 4.4
2024-02-23 07:40 am 4.3 2.0 11.4SSW 3.9 4.8 SVERY_STEEP 4.4
2024-02-23 07:10 am 4.3 2.0 12.9 S 3.6 4.5 SVERY_STEEP 4.4
2024-02-23 06:40 am 3.9 2.0 12.1SSE 3.3 4.3 SSW AVERAGE 4.4
2024-02-23 06:10 am 3.9 2.0 12.1 SE 3.6 4.3 SSWVERY_STEEP 4.5
2024-02-23 05:40 am 3.9 2.0 12.1ESE 3.3 4.2 SSW AVERAGE 4.3
2024-02-23 05:10 am 3.9 2.0 12.1ESE 3.3 4.2 SVERY_STEEP 4.3
2024-02-23 04:40 am 3.9 2.0 11.4ESE 3.3 4.2 SVERY_STEEP 4.3
2024-02-23 04:10 am 3.6 2.0 12.1ENE 3.0 4.8 SSE AVERAGE 4.4
2024-02-23 03:40 am 3.6 2.0 11.4ENE 3.0 3.8 SSW AVERAGE 4.4
2024-02-23 03:10 am 3.9 2.3 11.4 E 3.3 4.8 SSE AVERAGE 4.6
2024-02-23 02:40 am 4.3 2.6 12.9 E 3.3 4.5 SSE AVERAGE 4.7
2024-02-23 02:10 am 3.9 2.6 12.9 E 3.3 4.2 S AVERAGE 4.7
2024-02-23 01:40 am 3.9 2.3 12.9 E 3.3 5.0 SE AVERAGE 4.6
2024-02-23 01:10 am 3.9 2.3 12.9 E 3.3 4.5 SE AVERAGE 4.7
2024-02-23 12:40 am 3.6 2.3 12.1 E 2.6 3.7 S AVERAGE 4.6
2024-02-23 12:10 am 3.6 2.6 12.9ENE 2.6 3.6 SSW SWELL 4.6
2024-02-22 11:40 pm 3.6 3.0 12.9 E 2.3 3.4 SSW SWELL 5.0
2024-02-22 11:10 pm 3.3 3.0 12.1ENE 1.6 3.3 SSE SWELL 5.4
2024-02-22 10:40 pm 3.0 2.6 13.8 E 1.3 2.9 S SWELL 5.8
2024-02-22 10:10 pm 3.3 3.0 12.9ESE 1.3 2.7 S SWELL 6.1
2024-02-22 09:40 pm 3.0 3.0 13.8 SE 1.3 5.3 E SWELL 6.8
2024-02-22 09:10 pm 3.6 3.3 13.8ESE 1.0 5.0 E SWELL 7.5

Plot of wave energy versus frequency (and period)